Location: L�Adrech
(44.2500°N, 6.4167°E)
Time: 03:21:05
(UTC+00:00)

STARLINK-25 - Pass Details

Date: 07 June 2020
Orbit: 433 x 436 km, 53.0° (Epoch: 04 July)

Event Time Altitude Azimuth Distance (km) Brightness Sun altitude
Exits shadow 01:30:38 21° 137° (SE) 1,043 4.8 -17.8°
Drops below altitude 10° 01:33:26 10° 83° (E) 1,535 6.4 -17.5°
Enters shadow 02:28:09 -72° 237° (WSW) 12,607 10.4 -11.9°
Maximum altitude 03:07:30 57° 330° (NNW) 515 3.6 -7.0°
